Location: Br�ttisellen
(47.4227°N, 8.6287°E)
Time: 17:29:48
(UTC+00:00)

Cosmos 1535 Rocket - Pass Details

Date: 09 April 2020
Orbit: 949 x 1003 km, 83.0° (Epoch: 24 May)

Event Time Altitude Azimuth Distance (km) Brightness Sun altitude
Rises 21:38:22 0° 350° (N) 3,648 8.5 -29.6°
Reaches altitude 10° 21:40:52 10° 349° (N) 2,703 7.6 -29.8°
Enters shadow 21:47:00 78° 270° (W) 993 4.4 -30.3°
